274  
ASUS45 KGGW 151815  
RWRGGW  
HOURLY REGIONAL WEATHER ROUNDUP FOR NORTHEAST MONTANA  
NATIONAL WEATHER SERVICE GLASGOW MONTANA  
1200 PM MDT MON JUL 15 2019  
 
NOTE: "FAIR" INDICATES FEW OR NO CLOUDS BELOW 12,000 FEET WITH NO  
SIGNIFICANT WEATHER AND/OR S TO VISISBILITY.  
 
NORTHEAST MONTANA  
 
 
CITY SKY/WX TMP DP RH WIND PRES REMARKS
 
GLASGOW SUNNY 80 55 42 W13 29.97S  
6HR MIN TEMP: 62; 6HR MAX TEMP: 80;  
 
PLENTYWOOD N/A 72 56 57 NW9G22 N/A  
WOLF POINT SUNNY 80 56 43 NW10 29.95S  
JORDAN NOT AVBL  
WINNETT N/A 78 41 26 N7 N/A  
SIDNEY MOSUNNY 80 61 52 NW6 29.93S  
GLENDIVE MOSUNNY 79 62 56 NW12 29.98R  
MALTA N/A 79 51 37 W6 N/A  
 
FORT PECK REPORTS  
 
 
CITY SKY/WX TMP DP RH WIND PRES REMARKS
 
FORT PECK N/A 76 54 46 W10 N/A  
THE PINES N/A 78 55 44 W6 N/A  
 
SOUTHEAST MONTANA  
 
 
CITY SKY/WX TMP DP RH WIND PRES REMARKS
 
BILLINGS MOSUNNY 80 51 36 E7 30.08F  
MILES CITY MOSUNNY 80 55 42 NW10 30.01S  
BAKER MOSUNNY 79 59 50 NW13 30.01S  
LIVINGSTON SUNNY 76 50 40 VRB3 30.09F  
 
CENTRAL MONTANA  
 
 
CITY SKY/WX TMP DP RH WIND PRES REMARKS
 
HAVRE MOSUNNY 79 43 27 W17G29 30.01F  
LEWISTOWN MOSUNNY 73 43 33 N7 30.09S  
GREAT FALLS SUNNY 77 43 29 VRB5 30.06F  
CUT BANK PTSUNNY 73 40 30 VRB3 30.07F  
HELENA NOT AVBL  
BUTTE PTSUNNY 74 41 30 N6 30.15S  
BOZEMAN MOSUNNY 75 53 46 N7 30.10F  
 
WESTERN MONTANA  
 
 
CITY SKY/WX TMP DP RH WIND PRES REMARKS
 
MISSOULA SUNNY 76 45 33 CALM 30.05F  
KALISPELL NOT AVBL  
 
NORTH DAKOTA  
 
 
CITY SKY/WX TMP DP RH WIND PRES REMARKS
 
WILLISTON MOSUNNY 80 60 50 NW14 29.92R  
DICKINSON MOSUNNY 81 63 54 W14 29.92F  
MINOT SUNNY 83 64 52 W16G24 29.82S  
BISMARCK SUNNY 87 57 35 NW13 29.87R  
 
SOUTHERN SASKATCHEWAN  
 
 
CITY SKY/WX TMP DP RH WIND PRES REMARKS
 
REGINA PTSUNNY 73 59 60 NW18 29.88S  
MOOSE JAW MOSUNNY 73 57 56 NW14G23 29.91S  
ESTEVAN SUNNY 77 59 53 W17G24 29.88R  
SWIFT CURRENT NOT AVBL  
 
 
 
CLICK HERE TO GO TO PREVIOUS BULLETINS.

The Nexlab MT Page Main Text Page